Regional Weather Roundup
Issued by NWS

Home | Current Version | Previous Version | Text Only | Print | Product List | Glossary On
Versions: 1 2 3 4 5 6 7 8 9 10 11 12 13 14 15 16 17 18 19 20 21 22 23 24 25 26 27 28 29 30 31 32 33 34 35 36 37 38 39 40 41 42 43 44 45 46 47 48 49 50
000
ASUS43 KMKX 011300
RWRWI

WISCONSIN REGIONAL WEATHER ROUNDUP
NATIONAL WEATHER SERVICE MILWAUKEE/SULLIVAN WI
800 AM CDT MON SEP 01 2014

NOTE: "FAIR" INDICATES FEW OR NO CLOUDS BELOW 12,000 FEET WITH NO
SIGNIFICANT WEATHER AND/OR OBSTRUCTIONS TO VISIBILITY.

WIZ001-002-006>008-014>016-023>028-011400-
NORTHWEST WISCONSIN

CITY           SKY/WX    TMP DP  RH WIND       PRES   REMARKS
SUPERIOR ARPT  CLOUDY    64  63  97 SW6       29.61R
ASHLAND        LGT RAIN  63  61  93 SW6       29.62S FOG
HAYWARD        LGT RAIN  64  63  96 SW3       29.63F
SIREN          LGT RAIN  63  62  97 CALM      29.62F
RICE LAKE      RAIN      64  62  94 SW6       29.66S
LADYSMITH      LGT RAIN  64  63  94 SW8       29.66F
EAU CLAIRE     TSTM      64  64 100 S13       29.67R FOG
MENOMONIE      CLOUDY    64  64  98 SW7       29.66S
NEW RICHMOND   CLOUDY    64  64  99 SW5       29.65R
OSCEOLA        PTSUNNY   65  65 100 S3        29.66S
$$

WIZ003>005-009-010-017-018-011400-
NORTH CENTRAL WISCONSIN

CITY           SKY/WX    TMP DP  RH WIND       PRES   REMARKS
WOODRUFF       CLOUDY    64  62  91 W5        29.65R
RHINELANDER    CLOUDY    62  61  96 SW6       29.67S
EAGLE RIVER    CLOUDY    63  63 100 CALM      29.64S
LAND O LAKES   CLOUDY    64  63  96 SW3       29.65R
PHILLIPS       LGT RAIN  63  62  97 SW7       29.65S
TOMAHAWK       CLOUDY    61  60  96 CALM      29.67R
MEDFORD        LGT RAIN  62  60  96 SW5       29.68S
MERRILL        CLOUDY    63  62  96 SW5       29.68R
$$

WIZ029-030-035-036-043>047-011400-
CENTRAL WISCONSIN

CITY           SKY/WX    TMP DP  RH WIND       PRES   REMARKS
WAUSAU         CLOUDY    66  60  81 SW7       29.68R
MOSINEE        NOT AVBL
MARSHFIELD     CLOUDY    64  61  90 SW6       29.69R
STEVENS POINT  RAIN      64  59  85 SW9       29.70R
WAUPACA        LGT RAIN  69  65  86 CALM      29.68R
WAUTOMA        NOT AVBL
WISC RAPIDS    CLOUDY    65  62  90 SW6       29.71R
CAMP DOUGLAS   NOT AVBL
$$

WIZ011>013-019>022-031-037>040-048>050-011400-
NORTHEAST WISCONSIN

CITY           SKY/WX    TMP DP  RH WIND       PRES   REMARKS
ANTIGO         CLOUDY    64  62  96 S6        29.68R
STURGEON BAY   CLOUDY    68  66  94 S12G17    29.68S VSB 1/4
GREEN BAY      PTSUNNY   71  68  90 SE8       29.63F
MANITOWOC      CLOUDY    70  68  94 S15       29.67F FOG
APPLETON       PTSUNNY   70  68  94 SW7       29.67S
CLINTONVILLE   CLOUDY    68  64  88 SW5       29.66R
OSHKOSH        CLOUDY    70  67  90 SW7       29.67R
$$

WIZ032>034-041-042-053>061-011400-
SOUTHWEST WISCONSIN

CITY           SKY/WX    TMP DP  RH WIND       PRES   REMARKS
LA CROSSE      RAIN      66  63  90 S10       29.67F FOG
SPARTA         LGT RAIN  64  61  89 CALM      29.70R
VIROQUA        PTSUNNY   65  65 100 SW8G16    29.70F
BOSCOBEL       CLOUDY    68  63  84 SW7       29.72R
PRAIRIE DU CHI CLOUDY    67  62  83 S3        29.71R
PLATTEVILLE    FAIR      67  64  91 SW7       29.76R
$$

WIZ056-057-062-063-064-067-068-011400-
SOUTH CENTRAL WISCONSIN

CITY           SKY/WX    TMP DP  RH WIND       PRES   REMARKS
BARABOO/DELLS  CLOUDY    70  58  66 SW8       29.69S
LONE ROCK      NOT AVBL
WATERTOWN      PTSUNNY   69  68  97 S3        29.69R
MADISON        LGT RAIN  70  63  78 S10       29.70R
MIDDLETON      FAIR      69  61  74 SW3       29.71R
MONROE         CLOUDY    64  63  94 S10       29.73R
JANESVILLE     LGT RAIN  70  63  78 SW6       29.71R
$$

WIZ051-052-058>065-066-070>072-011400-
SOUTHEAST WISCONSIN

CITY           SKY/WX    TMP DP  RH WIND       PRES   REMARKS
MILWAUKEE      PTSUNNY   72  68  87 SE13      29.68F
WAUKESHA       CLOUDY    70  68  94 S8        29.70F FOG
MILWAUKEE/TIMM PTSUNNY   72  66  83 S9        29.68F
RACINE         PTSUNNY   73  69  87 S16G22    29.71F
BURLINGTON     MOSUNNY   71  69  95 S6        29.70S
KENOSHA        MOSUNNY   73  71  93 S12       29.71F
FOND DU LAC    CLOUDY    71  67  87 MISG      29.67R
SHEBOYGAN      PTSUNNY   70  68  93 SE10      29.64F FOG
WEST BEND      CLOUDY    70  64  83 SE8G16    29.66F FOG
JUNEAU         PTSUNNY   68  67  94 S8        29.70R
$$

LSZ147-162-011400-
LAKE SUPERIOR

STATION/POSITION TIME  TEMP    WIND        PRES    WAVE
                       AIR SEA DIR/SP/G            HT/PER
                 (UTC) (F)     (DEG/KT/KT) (MB)    (FT/S)
W MID LAKE BUOY  1150   62 58  230/ 16/ 19 1000.3R   2/ 4
DEVILS ISLAND    1200   63     240/ 13/ 15 1001.3R
PORT WING        1200   64     200/  5/  7 1002.4
SAXON HARBOR     1200   66     200/  6/ 11 1002.4R
$$

LMZ867-665-643>646-011400-
LAKE MICHIGAN

STATION/POSITION TIME  TEMP    WIND        PRES    WAVE
                       AIR SEA DIR/SP/G            HT/PER
                 (UTC) (F)     (DEG/KT/KT) (MB)    (FT/S)
N MID LAKE BUOY  1150   68 65  190/ 19/ 21 1005.4F   4/ 5
NORTHPORT PIER   1200   68     160/  8/ 15 1005.8F
KEWAUNEE LAKESHO 1200   60     180/  8/  9 1004.9F
SHEBOYGAN LAKESH 1200   67 54  170/ 15/ 16 1005.7F
ATWATER BUOY     1200   70     150/ 12/ 14 1007.7F
MILWAUKEE LAKESH 1200   68     150/  9/ 10   N/A
S MID LAKE BUOY  1150   71 70  170/ 14/ 16 1008.3F
KENOSHA   LAKESH 1200   66     160/ 11/ 12 1006.8F
$$

TC  - TEMPERATURE IN CELSIUS
VSB - VISIBILITY IN STATUTE MILES
WCI - WIND CHILL INDEX
HX  - HEAT INDEX




USA.gov is the U.S. government's official web portal to all federal, state and local government web resources and services.